Home   Weather   Uzbekistan   Nukus   Past weeks
Flag for Uzbekistan

Past Weather in Nukus, Uzbekistan — Yesterday and Last 2 Weeks

Currently: 25 °F. Ice fog. (Weather station: Nukus / Karakalpakstan, Uzbekistan). See more current weather

Past Weather in Nukus — Graph

°F

Nukus Temperature Yesterday

Maximum temperature yesterday: 30 °F (at 1:30 pm)
Minimum temperature yesterday: 23 °F (at 12:00 am)
Average temperature yesterday: 26 °F

High & Low Weather Summary for the Past Weeks

 TemperatureHumidityPressure
High46 °F (Jan 11, 4:30 pm)100% (Jan 8, 5:00 pm)30.39 "Hg (Jan 8, 5:00 pm)
Low21 °F (Jan 19, 8:30 am)56% (Jan 16, 3:00 pm)29.50 "Hg (Jan 15, 11:30 pm)
Average31 °F88%30.09 "Hg
* Reported Jan 6 9:00 am — Jan 21 9:00 am, Nukus. Weather by CustomWeather, © 2022

Note: Actual official high and low records may vary slightly from our data, if they occured in-between our weather recording intervals... More about our weather records

Nukus Weather History for the Previous 24 Hours

Scroll right to see more
 ConditionsComfort  
Time TempWeatherWind HumidityBarometerVisibility
9:00 am
Fri, Jan 21
25 °FIce fog.14 mph100%29.86 "Hg1 mi
8:30 am23 °FIce fog.14 mph93%29.86 "Hg1 mi
8:00 am23 °FIce fog.14 mph93%29.83 "Hg1 mi
7:30 am23 °FIce fog.12 mph93%29.83 "Hg1 mi
7:00 am23 °FIce fog.9 mph93%29.83 "Hg1 mi
6:30 am21 °FIce fog.9 mph93%29.83 "Hg1 mi
6:00 am21 °FLow clouds.14 mph93%29.80 "HgN/A
5:30 am21 °FLow clouds.12 mph93%29.80 "HgN/A
5:00 am23 °FLow clouds.12 mph93%29.80 "HgN/A
4:30 am23 °FLow clouds.12 mph93%29.80 "HgN/A
4:00 am23 °FLow clouds.12 mph93%29.80 "HgN/A
3:30 am23 °FLow clouds.9 mph93%29.80 "HgN/A
3:00 am23 °FLow clouds.14 mph93%29.83 "HgN/A
2:30 am23 °FLow clouds.12 mph93%29.83 "HgN/A
2:00 am25 °FLow clouds.14 mph93%29.80 "HgN/A
1:30 am23 °FLow clouds.14 mph93%29.83 "HgN/A
1:00 am25 °FLow clouds.14 mph86%29.83 "HgN/A
12:30 am25 °FLow clouds.12 mph93%29.86 "HgN/A
12:00 am25 °FLow clouds.12 mph86%29.89 "HgN/A
11:30 pm
Thu, Jan 20
25 °FLow clouds.9 mph93%29.89 "HgN/A
11:00 pm27 °FLow clouds.12 mph93%29.92 "Hg5 mi
10:30 pm27 °FIce fog.9 mph93%29.92 "Hg3 mi
10:00 pm27 °FIce fog.12 mph93%29.92 "Hg3 mi
9:30 pm27 °FIce fog.14 mph93%29.95 "Hg3 mi
9:00 pm27 °FIce fog.16 mph93%29.95 "Hg3 mi
8:30 pm27 °FIce fog.14 mph93%29.92 "Hg2 mi
8:00 pm28 °FIce fog.14 mph93%29.95 "Hg3 mi
7:30 pm28 °FIce fog.14 mph93%29.95 "Hg3 mi
7:00 pm28 °FIce fog.16 mph93%29.95 "Hg3 mi
6:30 pm28 °FLow clouds.14 mph93%29.98 "Hg5 mi
6:00 pm28 °FLow clouds.16 mph93%29.98 "HgN/A
5:30 pm28 °FLow clouds.14 mph93%29.98 "HgN/A
5:00 pm28 °FLow clouds.14 mph93%29.98 "HgN/A
4:30 pm28 °FLow clouds.14 mph93%29.98 "HgN/A
4:00 pm28 °FLow clouds.16 mph93%30.01 "HgN/A
3:30 pm28 °FLow clouds.14 mph93%30.04 "HgN/A
3:00 pm28 °FLow clouds.12 mph93%30.04 "HgN/A
2:30 pm30 °FLow clouds.12 mph93%30.04 "HgN/A
2:00 pm30 °FLow clouds.12 mph93%30.07 "HgN/A
1:30 pm30 °FLow clouds.9 mph86%30.09 "HgN/A
1:00 pm28 °FLow clouds.7 mph93%30.09 "HgN/A
12:30 pm28 °FLow clouds.7 mph93%30.12 "HgN/A
12:00 pm28 °FLow clouds.9 mph93%30.15 "HgN/A
11:30 am27 °FLow clouds.9 mph93%30.15 "HgN/A
11:00 am27 °FLow clouds.9 mph93%30.15 "HgN/A
10:30 am27 °FLow clouds.9 mph93%30.18 "HgN/A
10:00 am27 °FLow clouds.12 mph93%30.18 "HgN/A
Weather by CustomWeather, © 2022

See weather overview